Location: Unspecified
(58.7730°N, 5.8460°E)
Time: 07:25:31
(UTC+02:00)

CZ-3 Stage 3 - Visible Passes

Search period start: 31 March 2015 00:00
Search period end: 10 April 2015 00:00
Orbit: 423 x 34806 km, 31.0° (Epoch: 30 March)

Date Brightness Start Highest point End Pass type
(mag) Time Alt. Az. Time Alt. Az. Time Alt. Az.
31 Mar 7.4 15:28:12 10° SW 23:32:55 29° WSW 00:15:54 10° SSW visible
03 Apr 7.5 15:22:50 10° SW 23:26:06 28° WSW 00:09:51 10° SW visible
06 Apr 7.6 15:17:28 10° SW 23:19:08 27° WSW 00:03:39 10° SW visible
09 Apr 8.0 15:12:05 10° SW 23:12:03 26° WSW 23:57:19 10° SW visible
